Panda — PBCS — position and weather

sailwx.info

Track history (hours):
 
Tides and Currents Weather Stations Pressure Air Temp Water Temp Dewpoint Dewpoint Depression Visibility Wind Speed Wind Dir Waves Ship Positions

Panda

Last reported at 2014-Oct-18 11:32 UTC. Time now 2014-Oct-23 10:12 UTC.
Position N 43°26' E 004°44'.

Length 89 m; draft 4.2 m.

Type: Cargo ship. MMSI: 245014000.

Date/timePositionNaut miles runAvg speedWind from/ knotsBaromVisibWave heightAir tempDewpointWater temp
2014-Oct-18 11:32N 43°26' E 004°44'4 4.5
2014-Oct-18 10:33N 43°23' E 004°48'5 5.4
2014-Oct-18 09:33N 43°23' E 004°56'7 7.1
2014-Oct-18 08:33N 43°16' E 004°56'9 9.3
2014-Oct-18 07:32N 43°09' E 004°48'9 9.2
2014-Oct-18 06:33N 43°01' E 004°41'81 9.1
2014-Oct-17 21:33N 41°55' E 003°36'10 8.5
2014-Oct-17 20:23N 41°47' E 003°28'19 8.8
2014-Oct-17 18:15N 41°32' E 003°13'8 9.8
2014-Oct-17 17:28N 41°26' E 003°07'8 8.9
2014-Oct-17 16:33N 41°20' E 002°60'9 9.4
2014-Oct-17 15:33N 41°12' E 002°53'9 9.1
2014-Oct-17 14:33N 41°05' E 002°45'9 9.0
2014-Oct-17 13:33N 40°58' E 002°38'9 9.1
2014-Oct-17 12:33N 40°51' E 002°31'9 9.5
2014-Oct-17 11:33N 40°43' E 002°24'10 9.8
2014-Oct-17 10:33N 40°35' E 002°16'10 9.5
2014-Oct-17 09:33N 40°27' E 002°09'10 9.7
2014-Oct-17 08:33N 40°19' E 002°01'10 9.6
2014-Oct-17 07:33N 40°12' E 001°54'10 9.5
2014-Oct-17 06:33N 40°04' E 001°46'9 9.4
2014-Oct-17 05:33N 39°57' E 001°39'9 9.4
2014-Oct-17 04:33N 39°49' E 001°31'48 9.4
2014-Oct-16 23:27N 39°10' E 000°55'46 9.4
2014-Oct-16 18:31N 38°33' E 000°20'65 9.2
2014-Oct-16 11:31N 37°39' W 000°25'9 9.3
2014-Oct-16 10:32N 37°32' W 000°32'12 9.2
2014-Oct-16 09:13N 37°24' W 000°44'10 8.9
2014-Oct-16 08:09N 37°18' W 000°53'224 9.5
2014-Oct-15 08:33N 35°60' W 005°14'1212.2
2014-Oct-15 07:34N 35°57' W 005°29'  
Track history (hours):
 
Tides and Currents Weather Stations Pressure Air Temp Water Temp Dewpoint Dewpoint Depression Visibility Wind Speed Wind Dir Waves Ship Positions

Panda

Last reported at 2014-Oct-18 11:32 UTC. Time now 2014-Oct-23 10:12 UTC.
Position N 43°26' E 004°44'.

Length 89 m; draft 4.2 m.

Type: Cargo ship. MMSI: 245014000.

Date/timePositionNaut miles runAvg speedWind from/ knotsBaromVisibWave heightAir tempDewpointWater temp
2014-Oct-18 11:32N 43°26' E 004°44'4 4.5
2014-Oct-18 10:33N 43°23' E 004°48'5 5.4
2014-Oct-18 09:33N 43°23' E 004°56'7 7.1
2014-Oct-18 08:33N 43°16' E 004°56'9 9.3
2014-Oct-18 07:32N 43°09' E 004°48'9 9.2
2014-Oct-18 06:33N 43°01' E 004°41'81 9.1
2014-Oct-17 21:33N 41°55' E 003°36'10 8.5
2014-Oct-17 20:23N 41°47' E 003°28'19 8.8
2014-Oct-17 18:15N 41°32' E 003°13'8 9.8
2014-Oct-17 17:28N 41°26' E 003°07'8 8.9
2014-Oct-17 16:33N 41°20' E 002°60'9 9.4
2014-Oct-17 15:33N 41°12' E 002°53'9 9.1
2014-Oct-17 14:33N 41°05' E 002°45'9 9.0
2014-Oct-17 13:33N 40°58' E 002°38'9 9.1
2014-Oct-17 12:33N 40°51' E 002°31'9 9.5
2014-Oct-17 11:33N 40°43' E 002°24'10 9.8
2014-Oct-17 10:33N 40°35' E 002°16'10 9.5
2014-Oct-17 09:33N 40°27' E 002°09'10 9.7
2014-Oct-17 08:33N 40°19' E 002°01'10 9.6
2014-Oct-17 07:33N 40°12' E 001°54'10 9.5
2014-Oct-17 06:33N 40°04' E 001°46'9 9.4
2014-Oct-17 05:33N 39°57' E 001°39'9 9.4
2014-Oct-17 04:33N 39°49' E 001°31'48 9.4
2014-Oct-16 23:27N 39°10' E 000°55'46 9.4
2014-Oct-16 18:31N 38°33' E 000°20'65 9.2
2014-Oct-16 11:31N 37°39' W 000°25'9 9.3
2014-Oct-16 10:32N 37°32' W 000°32'12 9.2
2014-Oct-16 09:13N 37°24' W 000°44'10 8.9
2014-Oct-16 08:09N 37°18' W 000°53'224 9.5
2014-Oct-15 08:33N 35°60' W 005°14'1212.2
2014-Oct-15 07:34N 35°57' W 005°29'  

Dump ship's entire track history